Zurück zum Katalog

COSMOS 375 DEB

AktivLEO
NORAD 4728·DEBRIS·🇷🇺 Russia

Gestartet Oct 30, 1970 von Baikonur Cosmodrome

Loading…

Nächste Überflüge (nächste 24 Stunden)

TLE

AktuellSource: Space-Track

Epoche: Sep 14, 2026, 06:55 UTC

1 04728U 70091Z   26257.28842579  .00000680  00000-0  28022-3 0  9996
2 04728  62.9061 351.3724 0633920 294.8848  58.7571 13.59282353689106

Verfolge COSMOS 375 DEB in Echtzeit mit AllMySat

Download on the App Store